• In Kazakhstan
  • List of Countries
  • For 7 days
  • Water Temperature
  • Satellite Maps
  • Weather Map
  • News
  • Weather Widgets
  • user-avatar
    Login

    Hourly Weather Bantval

    Today, 24 September, Sunday

    Time Temperature Precipitation Wind Pressure Humidity
    00:00 +27°C° 0 mm 1 mps 755 mmHg 91%
    01:00 +27°C° 0 mm 1 mps 755 mmHg 92%
    02:00 +26°C° 0 mm 1 mps 754 mmHg 92%
    03:00 +26°C° 0 mm 1 mps 754 mmHg 93%
    04:00 +26°C° 0 mm 1 mps 754 mmHg 93%
    05:00 +26°C° 0 mm 1 mps 754 mmHg 93%
    06:00 +27°C° 0 mm 1 mps 755 mmHg 88%
    07:00 +28°C° 0 mm 1 mps 755 mmHg 82%
    08:00 +30°C° 0 mm 1 mps 755 mmHg 77%
    09:00 +31°C° 0 mm 1 mps 755 mmHg 70%
    10:00 +34°C° 0 mm 2 mps 755 mmHg 64%
    11:00 +35°C° 0 mm 2 mps 755 mmHg 58%
    12:00 +34°C° 0.1 mm 2 mps 754 mmHg 59%
    13:00 +34°C° 0.1 mm 3 mps 754 mmHg 61%
    14:00 +34°C° 0.1 mm 3 mps 753 mmHg 62%
    15:00 +33°C° 0.1 mm 3 mps 753 mmHg 67%
    16:00 +31°C° 0.1 mm 3 mps 753 mmHg 72%
    17:00 +30°C° 0.1 mm 3 mps 753 mmHg 77%
    18:00 +29°C° 0 mm 2 mps 754 mmHg 81%
    19:00 +28°C° 0 mm 2 mps 754 mmHg 85%
    20:00 +28°C° 0 mm 2 mps 755 mmHg 89%
    21:00 +27°C° 0.1 mm 2 mps 755 mmHg 89%
    22:00 +27°C° 0.1 mm 1 mps 755 mmHg 90%
    23:00 +27°C° 0.1 mm 1 mps 755 mmHg 90%

    Tomorrow, 25 September, Monday

    Time Temperature Precipitation Wind Pressure Humidity
    00:00 +27°C° 0.1 mm 1 mps 755 mmHg 91%
    01:00 +27°C° 0.1 mm 1 mps 754 mmHg 91%
    02:00 +27°C° 0.1 mm 1 mps 754 mmHg 91%
    03:00 +26°C° 0 mm 1 mps 754 mmHg 91%
    04:00 +26°C° 0 mm 1 mps 754 mmHg 91%
    05:00 +26°C° 0 mm 1 mps 753 mmHg 91%
    06:00 +27°C° 0.1 mm 1 mps 754 mmHg 88%
    07:00 +28°C° 0.1 mm 1 mps 754 mmHg 85%
    08:00 +26°C° 0.1 mm 0 mps 755 mmHg 82%
    09:00 +30°C° 0.2 mm 1 mps 755 mmHg 77%
    10:00 +31°C° 0.2 mm 1 mps 754 mmHg 71%
    11:00 +34°C° 0.2 mm 2 mps 754 mmHg 66%
    12:00 +32°C° 1.4 mm 2 mps 754 mmHg 71%
    13:00 +31°C° 1.4 mm 3 mps 753 mmHg 77%
    14:00 +30°C° 1.4 mm 3 mps 752 mmHg 82%
    15:00 +30°C° 1.3 mm 3 mps 752 mmHg 85%
    16:00 +29°C° 1.3 mm 2 mps 752 mmHg 88%
    17:00 +28°C° 1.3 mm 2 mps 752 mmHg 91%
    18:00 +27°C° 0.8 mm 2 mps 753 mmHg 92%
    19:00 +27°C° 0.8 mm 2 mps 754 mmHg 93%
    20:00 +27°C° 0.8 mm 1 mps 754 mmHg 94%
    21:00 +26°C° 0.2 mm 1 mps 754 mmHg 94%
    22:00 +26°C° 0.2 mm 1 mps 754 mmHg 94%
    23:00 +26°C° 0.2 mm 1 mps 754 mmHg 94%

    Day after tomorrow, 26 September, Tuesday

    Time Temperature Precipitation Wind Pressure Humidity
    00:00 +26°C° 0.1 mm 1 mps 754 mmHg 94%
    01:00 +26°C° 0.1 mm 1 mps 753 mmHg 95%
    02:00 +24°C° 0.1 mm 0 mps 753 mmHg 95%
    03:00 +24°C° 0.1 mm 0 mps 753 mmHg 95%
    04:00 +25°C° 0.1 mm 1 mps 753 mmHg 95%
    05:00 +25°C° 0.1 mm 1 mps 753 mmHg 95%
    06:00 +26°C° 0.2 mm 1 mps 753 mmHg 91%
    07:00 +27°C° 0.2 mm 1 mps 754 mmHg 87%
    08:00 +28°C° 0.2 mm 1 mps 754 mmHg 83%
    09:00 +30°C° 0.1 mm 1 mps 754 mmHg 77%
    10:00 +32°C° 0.1 mm 1 mps 754 mmHg 70%
    11:00 +33°C° 0.1 mm 1 mps 754 mmHg 63%
    12:00 +34°C° 0.5 mm 2 mps 753 mmHg 67%
    13:00 +32°C° 0.5 mm 2 mps 752 mmHg 70%
    14:00 +33°C° 0.5 mm 3 mps 752 mmHg 74%
    15:00 +31°C° 0.4 mm 2 mps 752 mmHg 78%
    16:00 +30°C° 0.4 mm 2 mps 752 mmHg 82%
    17:00 +29°C° 0.4 mm 2 mps 752 mmHg 86%
    18:00 +29°C° 0.5 mm 2 mps 753 mmHg 88%
    19:00 +28°C° 0.5 mm 2 mps 753 mmHg 90%
    20:00 +28°C° 0.5 mm 2 mps 754 mmHg 92%
    21:00 +27°C° 0.4 mm 1 mps 754 mmHg 92%
    22:00 +27°C° 0.4 mm 1 mps 754 mmHg 93%
    23:00 +27°C° 0.4 mm 1 mps 754 mmHg 93%

    27 September, Wednesday

    Time Temperature Precipitation Wind Pressure Humidity
    00:00 +27°C° 0.5 mm 1 mps 754 mmHg 94%
    01:00 +27°C° 0.5 mm 1 mps 753 mmHg 94%
    02:00 +27°C° 0.5 mm 1 mps 752 mmHg 95%
    03:00 +27°C° 0.7 mm 1 mps 752 mmHg 95%
    04:00 +26°C° 0.7 mm 1 mps 753 mmHg 95%
    05:00 +26°C° 0.7 mm 1 mps 753 mmHg 95%
    06:00 +27°C° 0.9 mm 1 mps 753 mmHg 91%
    07:00 +28°C° 0.9 mm 1 mps 754 mmHg 88%
    08:00 +29°C° 0.9 mm 1 mps 754 mmHg 84%
    09:00 +30°C° 0.8 mm 1 mps 754 mmHg 80%
    10:00 +31°C° 0.8 mm 2 mps 754 mmHg 76%
    11:00 +32°C° 0.8 mm 2 mps 754 mmHg 72%
    12:00 +31°C° 2.5 mm 2 mps 753 mmHg 76%
    13:00 +31°C° 2.5 mm 3 mps 752 mmHg 80%
    14:00 +30°C° 2.5 mm 3 mps 752 mmHg 84%
    15:00 +29°C° 2.7 mm 3 mps 752 mmHg 87%
    16:00 +28°C° 2.7 mm 3 mps 752 mmHg 90%
    17:00 +27°C° 2.7 mm 2 mps 752 mmHg 93%
    18:00 +27°C° 2 mm 2 mps 753 mmHg 94%
    19:00 +27°C° 2 mm 2 mps 753 mmHg 95%
    20:00 +27°C° 2 mm 1 mps 754 mmHg 96%
    21:00 +26°C° 1.1 mm 1 mps 754 mmHg 96%
    22:00 +26°C° 1.1 mm 1 mps 754 mmHg 96%
    23:00 +26°C° 1.1 mm 1 mps 754 mmHg 96%

    28 September, Thursday

    Time Temperature Precipitation Wind Pressure Humidity
    00:00 +26°C° 0.9 mm 1 mps 753 mmHg 96%
    01:00 +26°C° 0.9 mm 1 mps 753 mmHg 96%
    02:00 +26°C° 0.9 mm 1 mps 752 mmHg 96%
    03:00 +26°C° 1 mm 1 mps 752 mmHg 96%
    04:00 +26°C° 1 mm 1 mps 752 mmHg 96%
    05:00 +26°C° 1 mm 1 mps 752 mmHg 96%
    06:00 +26°C° 1.1 mm 1 mps 753 mmHg 96%
    07:00 +26°C° 1.1 mm 1 mps 753 mmHg 95%
    08:00 +26°C° 1.1 mm 1 mps 754 mmHg 94%
    09:00 +27°C° 1 mm 1 mps 754 mmHg 92%
    10:00 +28°C° 1 mm 1 mps 754 mmHg 90%
    11:00 +28°C° 1 mm 1 mps 754 mmHg 89%
    12:00 +28°C° 1.1 mm 1 mps 753 mmHg 88%
    13:00 +29°C° 1.1 mm 1 mps 752 mmHg 88%
    14:00 +29°C° 1.1 mm 1 mps 752 mmHg 88%
    15:00 +28°C° 1.5 mm 2 mps 752 mmHg 90%
    16:00 +27°C° 1.5 mm 2 mps 752 mmHg 92%
    17:00 +27°C° 1.5 mm 2 mps 753 mmHg 94%
    18:00 +27°C° 2.3 mm 2 mps 753 mmHg 95%
    19:00 +26°C° 2.3 mm 2 mps 754 mmHg 95%
    20:00 +26°C° 2.3 mm 1 mps 754 mmHg 96%
    21:00 +26°C° 2.6 mm 1 mps 754 mmHg 96%
    22:00 +26°C° 2.6 mm 1 mps 754 mmHg 96%
    23:00 +26°C° 2.6 mm 1 mps 754 mmHg 97%

    29 September, Friday

    Time Temperature Precipitation Wind Pressure Humidity
    00:00 +26°C° 4 mm 1 mps 754 mmHg 97%
    01:00 +26°C° 4 mm 1 mps 753 mmHg 97%
    02:00 +25°C° 4 mm 1 mps 752 mmHg 97%
    03:00 +25°C° 3.2 mm 1 mps 752 mmHg 96%
    04:00 +25°C° 3.2 mm 2 mps 752 mmHg 96%
    05:00 +25°C° 3.2 mm 2 mps 753 mmHg 96%
    06:00 +26°C° 1.1 mm 2 mps 753 mmHg 93%
    07:00 +27°C° 1.1 mm 2 mps 753 mmHg 91%
    08:00 +27°C° 1.1 mm 2 mps 754 mmHg 89%
    09:00 +28°C° 0.4 mm 2 mps 754 mmHg 87%
    10:00 +28°C° 0.4 mm 1 mps 754 mmHg 86%
    11:00 +28°C° 0.4 mm 1 mps 753 mmHg 85%
    12:00 +29°C° 0.4 mm 1 mps 753 mmHg 83%
    13:00 +30°C° 0.4 mm 2 mps 752 mmHg 81%
    14:00 +30°C° 0.4 mm 2 mps 751 mmHg 79%
    15:00 +30°C° 0.7 mm 2 mps 751 mmHg 83%
    16:00 +29°C° 0.7 mm 2 mps 751 mmHg 88%
    17:00 +28°C° 0.7 mm 2 mps 752 mmHg 93%
    18:00 +27°C° 1 mm 1 mps 752 mmHg 94%
    19:00 +27°C° 1 mm 1 mps 753 mmHg 95%
    20:00 +27°C° 1 mm 1 mps 753 mmHg 96%
    21:00 +26°C° 2.5 mm 1 mps 753 mmHg 96%
    22:00 +26°C° 2.5 mm 1 mps 753 mmHg 96%
    23:00 +26°C° 2.5 mm 1 mps 753 mmHg 97%
    Show more